This is the latest recevied weather packets stored in our database for station/object N2XP-3. If no packets are shown the sender has not sent any weather packets the latest 10 day(s).
| Time | Temp. | Humidity | Pressure | Rain* | Wind** | Luminosity | Snow |
|---|---|---|---|---|---|---|---|
| 1777800949 | 5.56° C | 69% | 1008.5 hPa | 0 mm | 2.24 m/s, 195° | - | - |
| 1777800638 | 5.56° C | 69% | 1008.5 hPa | 0 mm | 0.45 m/s, 87° | - | - |
| 1777800528 | 5.56° C | 69% | 1008.5 hPa | 0 mm | 1.79 m/s, 107° | - | - |
| 1777800333 | 5.56° C | 69% | 1008.5 hPa | 0 mm | 1.79 m/s, 107° | - | - |
| 1777800250 | 5.56° C | 69% | 1008.5 hPa | 0 mm | 0.45 m/s, 139° | - | - |
| 1777800016 | 5.56° C | 69% | 1008.5 hPa | 0 mm | 0.45 m/s, 139° | - | - |
| 1777799629 | 5.56° C | 68% | 1008.5 hPa | 0 mm | 0.89 m/s, 120° | - | - |
| 1777799414 | 5.56° C | 68% | 1008.5 hPa | 0 mm | 0.89 m/s, 120° | - | - |
| 1777799336 | 5.56° C | 68% | 1008.6 hPa | 0 mm | 2.24 m/s, 15° | - | - |
| 1777799198 | 5.56° C | 68% | 1008.6 hPa | 0 mm | 2.24 m/s, 15° | - | - |
| 1777799110 | 5.56° C | 68% | 1008.6 hPa | 0 mm | 2.24 m/s, 15° | - | - |
| 1777799032 | 5.56° C | 68% | 1008.5 hPa | 0 mm | 1.34 m/s, 131° | - | - |
| 1777798810 | 5.56° C | 68% | 1008.5 hPa | 0 mm | 1.34 m/s, 131° | - | - |
| 1777798463 | 5.56° C | 67% | 1008.5 hPa | 0 mm | 1.34 m/s, 172° | - | - |
| 1777798197 | 5.56° C | 67% | 1008.5 hPa | 0 mm | 1.34 m/s, 172° | - | - |
| 1777797893 | 5.56° C | 67% | 1008.4 hPa | 0 mm | 0.89 m/s, 150° | - | - |
| 1777797593 | 5.56° C | 66% | 1008.4 hPa | 0 mm | 1.34 m/s, 45° | - | - |
| 1777797348 | 6.11° C | 66% | 1008.3 hPa | 0 mm | 1.79 m/s, 232° | - | - |
| 1777797284 | 6.11° C | 66% | 1008.3 hPa | 0 mm | 1.79 m/s, 232° | - | - |
| 1777797260 | 5.56° C | 66% | 1008.4 hPa | 0 mm | 0.89 m/s, 198° | - | - |
| 1777796985 | 5.56° C | 66% | 1008.4 hPa | 0 mm | 0.89 m/s, 198° | - | - |
| 1777796794 | 6.11° C | 65% | 1008.4 hPa | 0 mm | 0.89 m/s, 125° | - | - |
| 1777796678 | 6.11° C | 65% | 1008.4 hPa | 0 mm | 0.89 m/s, 125° | - | - |
| 1777796598 | 6.11° C | 65% | 1008.4 hPa | 0 mm | 0.45 m/s, 104° | - | - |
| 1777796373 | 6.11° C | 65% | 1008.4 hPa | 0 mm | 0.45 m/s, 104° | - | - |
* Rain latest hour (hover to see other rain measurements)
** Current wind speed in m/s (hover to see current wind gust speed)